Probability
0 0 0 0 0 0 0 0 0 0 0 0 0 0 0 0 0 0 0 0 0 0 0 0 0 0 0 0 0 0 0 0 0 0 0 0 0 0 0 0 0 0 0
0 0 0 0 0 0 0 0 0 0 0 0 0 0 0 0 0 0 0 0 0 0 0 0 0 0 0 0 0 0 0 0 0 0 0 0 0 0 0 0 0 0 0
0 0 0 0 0 0 0 0 0 0 0 0 0 0 0 0 0 0 0 0 0 0 0 0 0 0 0 0 0 0 0 0 0 0 0 0 0 0 0 0 0 0 0
0 0 0 0 0 0 0 0 0 0 0 0 0 0 0 0 0 0 0 0 0 0 0 0 0 0 0 0 0 0 0 0 0 0 0 0 0 0 0 0 0 0 0
0 0 0 0 0 0 0 0 0 0 0 0 0 0 0 0 0 0 0 0 0 0 0 0 0 0 0 0 0 0 0 0 0 0 0 0 0 0 0 0 0 0 0
0 0 0 0 0 0 0 0 0 0 0 0 0 0 0 0 0 0 0 0 0 0 0 0 0 0 0 0 0 0 0 0 0 0 0 0 0 0 0 0 0 0 0
0 0 0 0 0 0 0 0 0 0 0 0 0 0 0 0 0 0 0 0 0 0 0 0 0 0 0 0 0 0 0 0 0 0 0 0 0 0 0 0 0 0 0
0 0 0 0 0 0 0 0 0 0 0 0 0 0 0 0 0 0 0 0 0 0 0 0 0 0 0 0 0 0 0 0 0 0 0 0 0 0 0 0 0 0 0
0 0 0 0 0 0 0 0 0 0 0 0 0 0 0 0 0 0 0 0 0 0 0 0 0 0 0 0 0 0 0 0 0 0 0 0 0 0 0 0 0 0 0
0 0 0 0 0 0 0 0 0 0 0 0 0 0 0 0 0 0 0 0 0 0 0 0 0 0 0 0 0 0 0 0 0 0 0 0 0 0 0 0 0 0 0
0 0 0 0 0 0 0 0 0 0 0 0 0 0 0 0 0 0 0 0 0 0 0 0 0 0 0 0 0 0 0 0 0 0 0 0 0 0 0 0 0 0 0
0 0 0 0 0 0 0 0 0 0 0 0 0 0 0 0 0 0 0 0 0 0 0 0 0 0 0 0 0 0 0 0 0 0 0 0 0 0 0 0 0 0 0
0 0 0 0 0 0 0 0 0 0 0 0 0 0 0 0 0 0 0 0 0 0 0 0 0 0 0 0 0 0 0 0 0 0 0 0 0 0 0 0 0 0 0
0 0 0 0 0 0 0 0 0 0 0 0 0 0 0 0 0 0 0 0 0 0 0 0 0 0 0 0 0 0 0 0 0 0 0 0 0 0 0 0 0 0 0
0 0 0 0 0 0 0 0 0 0 0 0 0 0 0 0 0 0 0 0 0 0 0 0 0 0 0 0 0 0 0 0 0 0 0 0 0 0 0 0 0 0 0
0 0 0 0 0 0 0 0 0 0 0 0 0 0 0 0 0 0 0 0 0 0 0 0 0 0 0 0 0 0 0 0 0 0 0 0 0 0 0 0 0 0 0
0 0 0 0 0 0 0 0 0 0 0 0 0 0 0 0 0 0 0 0 0 0 0 0 0 0 0 0 0 0 0 0 0 0 0 0 0 0 0 0 0 0 0
0 0 0 0 0 0 0 0 0 0 0 0 0 0 0 0 0 0 0 0 0 0 0 0 0 0 0 0 0 0 0 0 0 0 0 0 0 0 0 0 0 0 0
0 0 0 0 0 0 0 0 0 0 0 0 0 0 0 0 0 0 0 0 0 0 0 0 0 0 0 0 0 0 0 0 0 0 0 0 0 0 0 0 0 0 0
0 0 0 0 0 0 0 0 0 0 0 0 0 0 0 0 0 0 0 0 0 0 0 0 0 0 0 0 0 0 0 0 0 0 0 0 0 0 0 0 0 0 0
0 0 0 0 0 0 0 0 0 0 0 0 0 0 0 0 0 0 0 0 0 0 0 0 0 0 0 0 0 0 0 0 0 0 0 0 0 0 0 0 0 0 0
0 0 0 0 0 0 0 0 0 0 0 0 0 0 0 0 0 0 0 0 0 0 0 0 0 0 0 0 0 0 0 0 0 0 0 0 0 0 0 0 0 0 0
0 0 0 0 0 0 0 0 0 0 0 0 0 0 0 0 0 0 0 0 0 0 0 0 0 0 0 0 0 0 0 0 0 0 0 0 0 0 0 0 0 0 0
0 0 0 0 0 0 0 0 0 0 0 0 0 0 0 0 0 0 0 0 0 0 0 0 0 0 0 0 0 0 0 0 0 0 0 0 0 0 0 0 0 0 0
0 0 0 0 0 0 0 0 0 0 0 0 0 0 0 0 0 0 0 0 0 0 0 0 0 0 0 0 0 0 0 0 0 0 0 0 0 0 0 0 0 0 0
0 0 0 0 0 0 0 0 0 0 0 0 0 0 0 0 0 0 0 0 0 0 0 0 0 0 0 0 0 0 0 0 0 0 0 0 0 0 0 0 0 0 0
Height
5629 5629 5629 5629 5628 5628 5629 5629 5630 5631 5632 5633 5634 5635 5636 5637 5638 5639 5640 5641 5642 5643 5645 5647 5648 5649 5649 5650 5651 5651 5651 5650 5649 5649 5648 5648 5646 5645 5645 5644 5643 5642 5641
5621 5621 5621 5621 5620 5620 5621 5621 5622 5623 5623 5624 5625 5626 5627 5629 5630 5631 5632 5633 5634 5635 5637 5638 5639 5640 5640 5641 5641 5642 5641 5640 5639 5639 5638 5637 5637 5636 5635 5634 5633 5632 5631
5613 5614 5613 5613 5613 5612 5613 5613 5614 5614 5615 5615 5615 5617 5618 5620 5621 5623 5624 5625 5626 5628 5629 5630 5631 5631 5632 5632 5632 5632 5632 5631 5630 5629 5628 5627 5627 5626 5625 5624 5623 5622 5621
5607 5606 5606 5605 5605 5605 5604 5605 5605 5606 5606 5606 5607 5609 5610 5612 5613 5614 5616 5617 5618 5619 5620 5621 5622 5622 5623 5623 5623 5623 5623 5622 5620 5619 5618 5618 5617 5617 5616 5615 5613 5612 5611
5600 5600 5599 5599 5598 5598 5597 5597 5597 5598 5598 5598 5599 5601 5602 5603 5605 5606 5607 5609 5610 5611 5612 5612 5613 5613 5614 5614 5614 5614 5613 5612 5611 5610 5610 5609 5608 5607 5607 5605 5604 5603 5601
5593 5593 5592 5592 5591 5590 5589 5589 5590 5590 5590 5591 5592 5593 5594 5595 5597 5598 5599 5600 5601 5602 5603 5604 5605 5605 5605 5605 5605 5604 5604 5603 5602 5601 5601 5600 5599 5598 5597 5596 5595 5594 5593
5587 5586 5585 5584 5584 5583 5582 5582 5582 5582 5582 5583 5584 5585 5587 5588 5589 5590 5591 5592 5593 5594 5595 5595 5596 5596 5596 5597 5596 5596 5595 5594 5593 5593 5592 5591 5590 5589 5588 5587 5586 5585 5584
5581 5580 5579 5577 5576 5576 5575 5574 5574 5575 5575 5575 5576 5577 5579 5580 5581 5583 5583 5584 5585 5586 5586 5587 5587 5588 5588 5588 5587 5586 5586 5585 5585 5584 5584 5582 5580 5579 5579 5578 5577 5576 5575
5575 5573 5572 5571 5570 5569 5567 5566 5566 5567 5567 5568 5569 5570 5571 5572 5573 5575 5575 5576 5577 5578 5578 5578 5579 5579 5579 5579 5578 5578 5577 5576 5576 5575 5574 5573 5571 5570 5570 5569 5569 5568 5567
5568 5567 5565 5564 5563 5561 5560 5559 5559 5559 5560 5561 5561 5562 5563 5564 5565 5567 5568 5568 5569 5570 5570 5570 5570 5570 5570 5569 5569 5569 5568 5568 5568 5567 5566 5564 5563 5562 5561 5561 5560 5560 5558
5562 5560 5559 5557 5556 5555 5553 5553 5552 5552 5552 5553 5554 5555 5555 5556 5558 5559 5559 5560 5561 5561 5561 5562 5561 5561 5561 5560 5560 5560 5559 5559 5559 5558 5558 5557 5556 5555 5554 5553 5552 5551 5550
5556 5554 5552 5551 5549 5548 5547 5546 5545 5545 5545 5546 5546 5547 5548 5548 5550 5550 5551 5552 5552 5553 5553 5553 5553 5552 5552 5552 5551 5551 5551 5551 5551 5550 5550 5549 5548 5547 5546 5545 5544 5543 5543
5549 5547 5546 5544 5542 5541 5540 5539 5539 5539 5539 5539 5539 5539 5540 5541 5541 5542 5543 5543 5544 5545 5545 5545 5544 5544 5544 5543 5543 5542 5542 5542 5542 5542 5541 5541 5540 5539 5538 5537 5537 5536 5535
5542 5540 5539 5537 5535 5534 5533 5532 5532 5532 5532 5532 5532 5532 5533 5533 5534 5534 5535 5536 5536 5537 5537 5537 5536 5535 5535 5535 5534 5534 5534 5534 5533 5533 5533 5532 5532 5531 5531 5530 5529 5528 5528
5535 5533 5532 5530 5529 5527 5526 5525 5525 5525 5524 5524 5524 5525 5525 5526 5526 5527 5527 5528 5528 5529 5529 5528 5528 5527 5527 5526 5526 5526 5526 5526 5525 5525 5524 5524 5524 5523 5523 5523 5522 5521 5520
5528 5526 5525 5523 5522 5520 5520 5519 5518 5518 5517 5517 5517 5517 5518 5518 5518 5519 5520 5520 5520 5521 5521 5520 5520 5519 5519 5519 5518 5518 5517 5517 5516 5516 5516 5515 5515 5515 5515 5514 5514 5513 5512
5521 5519 5518 5516 5515 5514 5513 5512 5512 5511 5510 5510 5510 5510 5510 5511 5511 5511 5512 5512 5512 5512 5512 5512 5512 5511 5511 5511 5510 5510 5509 5509 5508 5508 5507 5507 5507 5507 5507 5506 5506 5505 5504
5513 5512 5511 5509 5508 5507 5506 5505 5505 5504 5504 5503 5503 5503 5503 5503 5503 5503 5504 5504 5504 5504 5504 5504 5504 5503 5503 5503 5502 5502 5502 5501 5501 5500 5499 5499 5498 5498 5498 5498 5497 5496 5496
5506 5505 5503 5502 5501 5500 5499 5499 5498 5497 5496 5496 5496 5495 5495 5495 5496 5496 5495 5496 5496 5496 5496 5496 5495 5495 5495 5494 5494 5494 5493 5493 5493 5492 5492 5491 5490 5490 5490 5489 5489 5488 5487
5499 5497 5496 5495 5494 5493 5492 5492 5491 5490 5489 5489 5488 5488 5487 5487 5487 5487 5487 5487 5487 5487 5487 5487 5487 5487 5486 5486 5486 5486 5485 5485 5485 5484 5484 5483 5483 5482 5482 5481 5481 5480 5480
5491 5490 5489 5488 5487 5486 5485 5484 5483 5482 5481 5481 5480 5479 5479 5479 5479 5478 5478 5478 5478 5478 5478 5478 5478 5478 5478 5478 5478 5477 5477 5477 5477 5477 5476 5476 5475 5475 5474 5474 5473 5473 5472
5484 5482 5481 5480 5479 5478 5477 5476 5475 5474 5473 5473 5472 5471 5471 5470 5470 5470 5470 5470 5470 5470 5470 5470 5470 5469 5469 5469 5470 5469 5469 5469 5469 5469 5469 5468 5468 5468 5467 5467 5466 5466 5465
5476 5475 5474 5473 5472 5471 5470 5469 5467 5466 5465 5465 5464 5463 5462 5462 5461 5461 5461 5461 5461 5461 5461 5461 5461 5461 5461 5461 5461 5461 5461 5461 5461 5461 5461 5461 5460 5460 5460 5460 5459 5459 5458
5469 5468 5467 5466 5465 5464 5462 5461 5460 5458 5457 5456 5455 5455 5454 5453 5453 5452 5452 5452 5452 5452 5452 5452 5452 5452 5452 5452 5452 5453 5453 5453 5453 5453 5453 5453 5453 5453 5453 5453 5453 5452 5452
5463 5461 5460 5459 5457 5456 5454 5453 5451 5450 5449 5448 5447 5446 5445 5444 5444 5443 5443 5443 5443 5443 5443 5443 5444 5444 5444 5444 5444 5444 5444 5445 5445 5445 5445 5445 5446 5446 5446 5446 5446 5446 5446
5455 5454 5453 5451 5450 5448 5446 5445 5443 5442 5440 5439 5438 5437 5436 5436 5435 5435 5434 5434 5434 5434 5434 5434 5435 5435 5435 5435 5436 5436 5436 5437 5437 5437 5437 5438 5438 5439 5439 5440 5440 5440 5440
Wind_Speed
29 29 28 29 30 31 32 32 33 33 34 33 34 34 35 36 36 35 36 36 35 35 35 35 35 36 36 36 35 36 37 37 37 37 37 36 35 36 36 35 36 36 35
28 28 28 27 28 30 31 31 32 33 33 33 33 33 34 35 35 35 34 35 35 35 35 35 35 35 35 36 36 36 36 37 37 37 37 36 36 35 35 35 36 36 36
27 27 28 28 27 29 30 30 31 32 32 32 32 32 34 35 34 34 34 35 35 35 35 35 35 35 35 36 35 35 35 36 37 38 37 37 36 35 35 35 36 35 35
26 26 26 26 27 29 29 31 31 31 32 32 32 33 33 34 34 34 34 35 35 36 36 36 35 36 36 35 35 35 35 36 36 37 36 36 36 35 34 35 35 35 35
25 26 26 26 27 28 29 29 29 30 30 30 30 31 32 32 32 33 33 34 35 36 37 37 36 35 35 35 35 36 36 37 36 34 35 35 35 35 35 35 33 33 34
24 25 25 26 27 27 28 28 29 29 28 28 29 29 30 31 31 31 32 33 34 35 35 35 35 35 34 35 35 36 36 35 34 34 34 35 36 37 36 34 33 33 32
25 25 25 25 27 27 28 28 28 28 28 29 28 29 29 30 30 31 32 32 32 32 33 33 33 33 33 34 34 35 34 32 32 32 33 34 35 35 35 34 33 32 31
26 27 27 27 27 27 27 27 27 28 28 28 28 29 30 30 30 30 30 30 30 30 31 32 33 32 33 34 34 34 32 31 32 33 33 34 33 34 35 34 33 31 31
26 27 28 27 27 27 27 27 28 29 29 28 29 29 30 30 30 29 29 29 29 29 29 30 31 32 32 33 32 32 31 30 31 32 33 32 31 32 32 32 31 30 30
27 27 27 27 27 27 27 27 28 28 29 29 28 29 30 31 29 29 29 29 29 28 29 29 30 30 31 31 30 31 31 31 30 30 29 29 30 30 31 30 30 30 29
26 25 26 25 25 26 26 26 27 27 27 28 28 27 28 28 29 29 28 28 29 29 29 29 30 30 30 30 29 30 30 30 30 29 29 29 28 28 28 29 29 30 29
24 24 24 24 23 24 25 25 26 26 26 27 27 27 27 27 27 27 27 27 27 28 28 29 29 29 29 29 30 30 29 29 30 30 29 29 28 27 27 27 26 27 28
24 24 24 24 23 23 23 23 23 23 23 24 24 24 25 25 25 25 25 25 25 26 27 28 28 28 28 29 29 29 28 29 29 30 29 29 27 26 26 25 26 26 27
24 24 24 24 23 23 23 23 23 23 23 24 24 24 25 25 25 25 25 25 26 26 27 27 27 27 28 28 28 28 28 29 29 29 29 28 27 26 26 26 26 26 26
24 23 23 23 23 23 23 23 23 23 24 24 24 24 24 24 25 25 25 25 25 25 25 26 26 26 26 26 26 27 28 29 29 29 29 28 28 27 26 26 26 25 25
24 24 24 23 23 23 24 23 23 23 24 24 24 24 24 24 25 25 25 25 25 25 25 25 26 26 25 26 26 27 27 28 28 28 28 28 28 27 27 27 26 25 25
23 23 23 23 23 23 23 23 23 23 23 24 24 24 24 24 25 25 26 26 26 26 26 26 26 26 26 26 26 26 27 27 28 28 28 28 28 28 27 27 26 25 25
24 23 23 22 22 22 22 22 22 23 23 24 24 24 25 25 25 26 26 26 26 26 26 26 26 26 26 25 26 26 26 26 26 27 27 27 27 27 27 26 25 25 25
24 24 24 23 23 23 23 23 23 23 24 25 25 25 26 26 27 27 27 27 27 27 26 26 26 26 26 26 26 26 26 26 25 25 25 26 26 26 26 26 25 25 25
25 25 25 24 23 23 24 24 25 25 25 26 26 27 27 27 28 28 28 28 27 27 26 26 26 26 26 26 26 25 25 25 25 24 24 25 25 25 25 25 25 25 25
26 26 25 24 24 24 25 25 26 26 26 27 27 26 27 27 28 28 28 27 27 26 26 26 26 26 26 26 25 25 25 25 24 23 23 24 24 23 23 24 24 24 24
24 24 24 23 23 24 24 25 25 26 25 26 26 26 26 27 27 27 27 27 27 26 26 26 26 26 25 25 26 25 25 25 24 24 23 23 23 22 22 22 22 22 22
23 23 23 24 23 24 24 25 24 24 25 25 26 27 27 27 27 27 27 27 26 26 26 26 26 26 26 26 26 25 25 25 25 24 24 23 22 22 21 21 21 21 21
22 22 23 24 24 24 24 24 24 24 25 26 26 27 27 27 27 27 26 27 27 27 27 27 27 26 26 26 25 25 24 24 24 24 24 23 22 22 21 21 20 20 19
22 22 23 23 24 25 25 25 25 26 26 26 26 26 26 26 26 26 26 27 27 27 27 27 26 26 25 25 24 24 24 24 24 24 23 22 21 21 20 20 19 19 18
23 23 23 24 24 25 25 26 26 26 26 26 26 25 26 26 26 26 26 26 27 27 27 26 26 25 25 25 24 25 24 24 23 22 22 21 20 19 19 19 18 17 16
Wind_Direction
264 264 266 266 265 263 262 258 258 258 259 259 259 258 256 256 258 259 258 258 258 258 257 259 260 262 264 265 266 267 268 269 271 273 275 276 276 277 273 273 275 276 275
263 263 267 268 268 266 263 259 258 259 259 260 257 257 257 256 257 257 257 257 257 256 257 257 259 262 264 266 267 267 269 271 273 275 275 274 274 277 276 274 275 276 276
264 266 270 270 268 268 263 260 259 259 259 258 257 257 256 256 256 258 258 258 257 256 257 259 261 264 265 267 267 269 272 274 274 274 275 275 273 274 276 277 276 275 277
265 268 269 268 268 268 264 260 260 259 258 259 258 257 257 257 257 258 259 259 257 256 258 260 263 265 266 268 268 270 273 275 275 275 275 275 274 274 275 278 278 277 277
268 269 269 269 270 269 265 261 259 258 259 258 256 257 258 259 259 259 260 260 258 258 259 260 264 267 268 268 269 271 272 273 274 275 275 276 275 275 278 279 279 278 278
272 272 271 270 272 270 268 262 261 262 260 257 257 258 259 260 260 261 262 260 260 261 261 263 265 267 269 269 269 271 273 273 273 274 276 277 277 278 278 277 278 279 278
274 275 273 273 273 272 270 267 264 262 260 258 256 256 258 259 260 262 261 262 263 263 263 263 265 268 270 270 271 271 272 272 273 275 277 278 278 278 277 277 278 279 280
277 277 275 275 272 271 271 269 266 264 261 259 257 257 259 259 260 262 264 263 263 264 265 265 265 266 270 271 272 272 272 272 272 273 276 278 278 277 277 278 277 278 281
279 278 277 274 272 272 272 272 269 265 262 260 260 259 260 261 263 264 265 264 265 265 267 267 267 268 270 272 272 272 271 272 274 275 277 278 278 278 277 276 277 278 280
282 280 277 276 274 272 271 271 269 266 265 262 263 264 263 263 264 265 265 266 266 267 267 268 269 269 271 271 271 271 271 271 275 277 278 278 278 277 275 275 278 279 279
284 280 278 276 274 273 272 270 268 266 266 265 264 265 265 263 264 265 265 266 267 267 267 267 268 269 270 270 271 271 270 272 274 277 277 277 277 276 276 276 278 279 277
284 281 278 277 277 276 275 272 268 266 265 265 263 264 264 264 265 264 264 265 265 265 266 268 269 270 271 272 272 271 270 271 274 276 275 275 276 277 278 278 277 277 279
287 284 281 280 280 279 278 274 269 267 265 264 264 265 265 265 265 265 263 263 264 265 267 271 271 272 272 272 273 271 270 272 275 275 275 275 276 276 276 275 275 277 279
288 285 283 283 281 278 277 274 270 267 265 266 267 267 266 266 266 265 264 265 266 268 270 272 273 273 272 272 272 271 272 273 274 274 274 274 274 274 276 275 275 276 277
287 285 283 282 281 279 277 276 272 268 265 265 265 265 264 264 264 264 264 265 266 269 271 273 273 273 273 274 274 273 272 272 273 273 273 273 272 272 274 275 275 276 277
283 282 282 282 281 279 279 278 273 270 268 267 267 266 264 265 265 265 265 266 268 271 272 273 274 273 272 274 274 273 272 272 273 274 274 273 272 272 274 275 276 276 277
284 283 283 282 281 280 280 280 278 275 272 270 268 267 267 266 265 265 265 266 268 271 273 273 274 273 272 273 274 275 274 274 275 275 274 273 272 273 274 274 275 276 277
284 282 281 281 281 280 280 279 278 276 274 272 270 268 266 266 265 266 266 267 269 271 272 272 273 273 273 273 275 275 276 277 277 276 274 274 273 272 273 274 276 276 277
284 283 281 281 280 279 279 279 279 277 274 272 271 269 267 266 266 267 268 269 270 271 271 271 272 274 274 274 274 275 277 277 277 277 275 273 273 272 272 274 275 275 276
284 284 282 281 281 280 279 280 281 280 277 275 272 270 269 269 269 269 269 270 271 271 270 271 273 274 274 273 273 274 275 275 275 275 275 274 273 273 273 274 275 276 277
284 283 283 282 281 280 280 280 282 281 280 276 273 271 271 271 271 270 270 270 271 271 270 271 273 274 272 272 272 273 273 272 272 273 275 275 275 274 274 275 276 277 277
284 283 282 281 282 282 282 282 281 281 279 276 274 272 272 273 273 272 270 269 269 269 269 270 273 273 272 271 271 271 271 270 270 271 272 274 275 274 275 275 276 277 278
284 283 281 280 281 283 285 285 283 281 279 277 277 274 273 273 273 271 269 268 269 269 269 270 272 272 271 271 271 270 270 269 269 270 271 272 273 273 274 275 276 277 277
284 284 283 282 282 283 284 284 284 283 282 280 277 276 274 274 273 272 270 269 269 270 269 270 270 269 269 270 270 269 268 269 269 269 269 270 270 271 272 272 273 275 275
284 284 285 286 285 284 284 284 283 283 282 280 278 276 274 274 274 273 273 271 271 270 269 269 268 268 267 268 268 268 268 269 269 268 268 267 267 268 268 269 270 271 270
284 285 286 286 285 285 284 284 283 283 282 280 279 277 276 275 274 273 273 273 272 271 269 268 267 267 266 267 268 268 267 266 267 267 266 264 265 265 266 266 266 265 263